METEOR 1-11

Satellite information

Favourite Embed

Satellite Type and Status

PAYLOADIN ORBIT

Key statistics

Satellite METEOR 1-11 at a glance.

Uptime

19617

Days in orbit

Revolutions

≈ 14.1

Per day

Orbit

LEO

Low Earth Orbit

Inclination

81.2

Latest

Satellite identification and parameters

Extended collection of information and parameters for METEOR 1-11.

Object identification

Identified? True

Debris? False

Object name: METEOR 1-11

International designator: 1972-022A

Object number (NORAD): 5917

Object ID (CCSDS): 5917

Country: COMMONWEALTH OF INDEPENDENT STATES (CIS)

Current information (Y/N): Y

RCS size: LARGE

Orbital parameters

Period: 102.184 minutes

Inclination: 81.2261 deg

SMA: 7240.174 km

Apoapsis: 894.377 km

Periapsis: 829.7 km

RAAN: 107.6683 deg

Eccentricy: 0.00446659

Argument of periapsis: 139.0652 deg

Mean anomaly: 221.3886 deg

Mean motion: 14.09221618 rev/day

Mean motion (dot): 0.00000112 rev/day2

B* drag term: 0.000056627381 1/REarth

Two-line elements (TLE)

Creation date: Dec. 12, 2025, 3:16 a.m.

Reference frame: TEME

Reference center: EARTH

Epoch: Dec. 11, 2025, 8:01 p.m. UTC

TLE line 0: 0 METEOR 1-11

TLE line 1: 1 05917U 72022A 25345.83461745 .00000112 00000-0 56627-4 0 9996

TLE line 2: 2 05917 81.2261 107.6683 0044666 139.0652 221.3886 14.09221618758056

Live tracking on map

Real-time ground track for satellite METEOR 1-11.

In-orbit conjunctions

A list of the most updated potential collisions computed for object METEOR 1-11.

Target Orbit TCA Probability of collision Miss distance Type
CZ-6A DEB LEO 2025-12-03 20:29:16 0.0005262662 590.0 (m) DEBRIS
FENGYUN 1C DEB SSO 2025-10-18 17:08:06 0.0001727643 74.0 (m) DEBRIS
COSMOS 1275 DEB LEO 2025-09-24 17:53:22 0.0006158344 398.0 (m) DEBRIS
METEOR 2-17 DEB LEO 2025-07-29 04:47:41 0.0002098671 907.0 (m) DEBRIS
FENGYUN 1C DEB SSO 2025-03-19 04:05:04 0.0001090281 573.0 (m) DEBRIS

Associated space launch

The Meteor-1 series was the first series of Soviet meteorological satellites.

METEOR 1-11 was lifted into orbit during the mission ‘Vostok 8A92M | Meteor-1 11 (23L)’, on board a Vostok 8A92M space rocket.

The launch took place on March 30, 1972, 2:05 p.m. from 41/1.

For more information about the launch, click the button.

Launch to space Vostok 8A92M | Meteor-1 11 (23L)
Vostok 8A92M | Meteor-1 11 (23L)

Agency: N/A

Status: Launch Successful

Launch date: March 30, 1972, 2:05 p.m. UTC

Rocket: Vostok 8A92M

Launch pad: 41/1

Location: Plesetsk Cosmodrome, Russian Federation

...

Latest news about this satellite

There are no fresh news available about this satellite. Check back as we update our databases every day.


Newsletter sign-up

Weekly statistics, charts and insights to help you stay on top of the space industry.